Weather History for KMTH - March, 2013

Change the Weather History Date:

Sunday, March 17, 2013

  Actual Average Record
Temperature  
Mean Temperature 76 °F 74 °F  
Max Temperature 81 °F 79 °F - ()
Min Temperature 70 °F 69 °F - ()
Degree Days  
Heating Degree Days 0 0  
Month to date heating degree days 19 0  
Since 1 July heating degree days 32 75  
Cooling Degree Days 11 9  
Month to date cooling degree days 69 143  
Year to date cooling degree days 664 525  
Growing Degree Days 26 (Base 50)    
Moisture  
Dew Point 59 °F    
Average Humidity 57    
Maximum Humidity 68    
Minimum Humidity 45    
Precipitation  
Precipitation 0.00 in 0.08 in - ()
Month to date precipitation 0.15 1.29  
Year to date precipitation 2.53 5.11  
Snow  
Snow 0.00 in - - ()
Month to date snowfall 0.0  
Since 1 July snowfall 0.0  
Snow Depth 0.00 in    
Sea Level Pressure  
Sea Level Pressure 30.07 in    
Wind  
Wind Speed 7 mph (SE)    
Max Wind Speed 10 mph    
Max Gust Speed 16 mph    
Visibility 10 miles    
Events      
T = Trace of Precipitation, MM = Missing Value Source: NWS Daily Summary

Daily Weather History Graph

Daily Weather History Graph

Search for Another Location

Airport or City:

Trip Planner

Search our weather history database for the weather conditions in past years. The results will help you decide how hot, cold, wet, or windy it might be!

Date:

Astronomy

Mar. 17, 2013 Rise Set
Actual Time 7:30 AM EDT 7:34 PM EDT
Civil Twilight 7:08 AM EDT 7:56 PM EDT
Nautical Twilight 6:41 AM EDT 8:23 PM EDT
Astronomical Twilight 6:15 AM EDT 8:50 PM EDT
Moon 11:16 AM EDT (3/17) 12:08 AM EDT (3/17)
Length of Visible Light 12h 48m
Length of Day
12h 03m
Waxing Crescent, 31% of the Moon is Illuminated
Mar 17
Waxing Crescent
Mar 19
First Quarter
Mar 27
Full
Apr 3
Last Quarter
Apr 10
New

Hourly Weather History & Observations

Time (EDT) Temp. Heat Index Dew Point Humidity Pressure Visibility Wind Dir Wind Speed Gust Speed Precip Events Conditions
12:53 AM 70.0 °F - 55.0 °F 59% 30.12 in 10.0 mi ESE 8.1 mph - N/A   Clear
1:53 AM 70.0 °F - 57.0 °F 63% 30.10 in 10.0 mi ESE 5.8 mph - N/A   Clear
2:53 AM 70.0 °F - 57.0 °F 63% 30.09 in 10.0 mi ESE 6.9 mph - N/A   Clear
3:53 AM 70.0 °F - 57.0 °F 63% 30.07 in 10.0 mi SE 6.9 mph - N/A   Clear
4:53 AM 70.0 °F - 57.0 °F 63% 30.06 in 10.0 mi SE 6.9 mph - N/A   Partly Cloudy
5:53 AM 70.0 °F - 57.9 °F 65% 30.06 in 10.0 mi SE 5.8 mph - N/A   Scattered Clouds
6:53 AM 71.1 °F - 57.9 °F 63% 30.08 in 10.0 mi SE 5.8 mph - N/A   Mostly Cloudy
7:53 AM 71.1 °F - 57.0 °F 61% 30.09 in 10.0 mi SE 6.9 mph - N/A   Mostly Cloudy
8:53 AM 72.0 °F - 57.9 °F 61% 30.11 in 10.0 mi SE 5.8 mph - N/A   Overcast
9:53 AM 75.0 °F - 57.0 °F 53% 30.12 in 10.0 mi ESE 5.8 mph - N/A   Overcast
10:53 AM 77.0 °F - 57.9 °F 52% 30.12 in 10.0 mi Variable 5.8 mph - N/A   Scattered Clouds
11:53 AM 78.1 °F - 57.9 °F 50% 30.12 in 10.0 mi SE 6.9 mph - N/A   Mostly Cloudy
12:53 PM 80.1 °F 80.7 °F 59.0 °F 48% 30.12 in 10.0 mi SE 6.9 mph - N/A   Scattered Clouds
1:53 PM 81.0 °F 81.3 °F 59.0 °F 47% 30.09 in 10.0 mi SE 9.2 mph - N/A   Clear
2:53 PM 80.1 °F 80.4 °F 57.0 °F 45% 30.05 in 10.0 mi SE 8.1 mph - N/A   Clear
4:53 PM 78.1 °F - 57.9 °F 50% 30.03 in 10.0 mi SE 5.8 mph - N/A   Clear
5:53 PM 77.0 °F - 60.1 °F 56% 30.03 in 10.0 mi Variable 5.8 mph - N/A   Scattered Clouds
6:53 PM 75.0 °F - 59.0 °F 57% 30.02 in 10.0 mi ESE 8.1 mph - N/A   Partly Cloudy
7:53 PM 73.0 °F - 60.1 °F 64% 30.01 in 10.0 mi East 6.9 mph - N/A   Clear
8:53 PM 73.0 °F - 61.0 °F 66% 30.03 in 10.0 mi ESE 6.9 mph - N/A   Clear
9:53 PM 73.0 °F - 62.1 °F 68% 30.05 in 10.0 mi ESE 5.8 mph - N/A   Clear
10:53 PM 73.0 °F - 62.1 °F 68% 30.07 in 10.0 mi ESE 6.9 mph - N/A   Mostly Cloudy
11:53 PM 73.0 °F - 63.0 °F 71% 30.06 in 10.0 mi ESE 5.8 mph - N/A   Mostly Cloudy